Cagliari, Italy

1:15 PM CEST on April 22, 2018 (GMT +0200)
Elmas Mil

Weather History for LIEE - September, 2012

Change the Weather History Date:

Wednesday, September 5, 2012

  Actual Average Record
Temperature  
Mean Temperature 74 °F -  
Max Temperature 83 °F 79 °F 96 °F (2016)
Min Temperature 66 °F 62 °F 59 °F (1996)
Cooling Degree Days 10    
Growing Degree Days 24 (Base 50)    
Moisture  
Dew Point 62 °F    
Average Humidity 65    
Maximum Humidity 94    
Minimum Humidity 34    
Precipitation  
Precipitation 0.00 in 0.05 in - ()
Sea Level Pressure  
Sea Level Pressure 29.93 in    
Wind  
Wind Speed 7 mph ()    
Max Wind Speed 17 mph    
Max Gust Speed -    
Visibility 6.3 miles    
Events      
Averages and records for this station are not official NWS values.
T = Trace of Precipitation, MM = Missing Value Source: Averaged Metar Reports

Daily Weather History Graph

Daily Weather History Graph

Search for Another Location

Airport or City:

Astronomy

Sep. 05, 2012 Rise Set
Actual Time 6:56 AM CEST 7:47 PM CEST
Civil Twilight 6:28 AM CEST 8:15 PM CEST
Nautical Twilight 5:56 AM CEST 8:47 PM CEST
Astronomical Twilight 5:23 AM CEST 9:20 PM CEST
Moon 10:09 PM CEST (9/5) 11:42 AM CEST (9/5)
Length of Visible Light 13h 46m
Length of Day
12h 51m
Waning Gibbous, 78% of the Moon is Illuminated
Sep 5
Waning Gibbous
Sep 8
Last Quarter
Sep 16
New
Sep 22
First Quarter
Sep 30
Full

Hourly Weather History & Observations

Time (CEST) Temp. Heat Index Dew Point Humidity Pressure Visibility Wind Dir Wind Speed Gust Speed Precip Events Conditions
12:15 AM 68.0 °F - 64.4 °F 88% 29.89 in 6.2 mi WNW 3.5 mph - N/A   Scattered Clouds
12:45 AM 66.2 °F - 62.6 °F 88% 29.89 in 6.2 mi NW 3.5 mph - N/A   Partly Cloudy
12:55 AM 66.2 °F - 62.6 °F 88% 29.89 in 6.2 mi NW 3.5 mph - N/A   Partly Cloudy
1:15 AM 66.2 °F - 62.6 °F 88% 29.89 in 6.2 mi NNW 4.6 mph - N/A   Scattered Clouds
1:45 AM 66.2 °F - 62.6 °F 88% 29.89 in 6.2 mi NNW 3.5 mph - N/A   Scattered Clouds
1:55 AM 66.2 °F - 62.6 °F 88% 29.89 in 6.2 mi NNW 3.5 mph - N/A   Scattered Clouds
2:00 AM 67 °F - 63 °F 84% 29.91 in 7 mi NNW 3.5 mph - -   Partly Cloudy
2:15 AM 66.2 °F - 62.6 °F 88% 29.89 in 6.2 mi NNW 2.3 mph - N/A   Scattered Clouds
2:45 AM 68.0 °F - 64.4 °F 88% 29.89 in 6.2 mi NW 3.5 mph - N/A   Scattered Clouds
2:55 AM 68.0 °F - 64.4 °F 88% 29.89 in 6.2 mi NW 3.5 mph - N/A   Scattered Clouds
3:15 AM 68.0 °F - 64.4 °F 88% 29.89 in 6.2 mi NW 3.5 mph - N/A   Scattered Clouds
3:45 AM 68.0 °F - 64.4 °F 88% 29.89 in 6.2 mi NW 4.6 mph - N/A   Partly Cloudy
3:55 AM 68.0 °F - 64.4 °F 88% 29.89 in 6.2 mi NW 4.6 mph - N/A   Partly Cloudy
4:15 AM 66.2 °F - 64.4 °F 94% 29.89 in 6.2 mi NW 4.6 mph - N/A   Partly Cloudy
4:45 AM 68.0 °F - 64.4 °F 88% 29.89 in 6.2 mi WNW 5.8 mph - N/A   Partly Cloudy
4:55 AM 68.0 °F - 64.4 °F 88% 29.89 in 6.2 mi WNW 5.8 mph - N/A   Partly Cloudy
5:00 AM 68 °F - 64 °F 81% 29.91 in 7 mi WNW 5.8 mph - -   Scattered Clouds
5:15 AM 68.0 °F - 64.4 °F 88% 29.89 in 6.2 mi WNW 5.8 mph - N/A   Partly Cloudy
5:45 AM 68.0 °F - 64.4 °F 88% 29.89 in 6.2 mi West 6.9 mph - N/A   Partly Cloudy
6:15 AM 68.0 °F - 64.4 °F 88% 29.89 in 6.2 mi West 5.8 mph - N/A   Partly Cloudy
6:45 AM 68.0 °F - 62.6 °F 83% 29.89 in 6.2 mi West 6.9 mph - N/A   Partly Cloudy
6:55 AM 68.0 °F - 62.6 °F 83% 29.89 in 6.2 mi West 6.9 mph - N/A   Partly Cloudy
7:15 AM 68.0 °F - 64.4 °F 88% 29.89 in 6.2 mi West 6.9 mph - N/A   Partly Cloudy
7:45 AM 68.0 °F - 64.4 °F 88% 29.89 in 6.2 mi WNW 5.8 mph - N/A   Partly Cloudy
7:55 AM 68.0 °F - 64.4 °F 88% 29.89 in 6.2 mi WNW 5.8 mph - N/A   Partly Cloudy
8:00 AM 68 °F - 64 °F 83% 29.92 in 7 mi WNW 5.8 mph - -   Scattered Clouds
8:15 AM 69.8 °F - 64.4 °F 83% 29.92 in 6.2 mi WNW 4.6 mph - N/A   Partly Cloudy
8:45 AM 71.6 °F - 64.4 °F 78% 29.92 in 6.2 mi WNW 6.9 mph - N/A   Partly Cloudy
8:55 AM 71.6 °F - 64.4 °F 78% 29.92 in 6.2 mi WNW 6.9 mph - N/A   Partly Cloudy
9:15 AM 75.2 °F - 64.4 °F 69% 29.92 in 6.2 mi WNW 15.0 mph - N/A   Partly Cloudy
9:45 AM 77.0 °F - 62.6 °F 61% 29.92 in 6.2 mi West 12.7 mph - N/A   Partly Cloudy
9:55 AM 77.0 °F - 62.6 °F 61% 29.92 in 6.2 mi West 12.7 mph - N/A   Partly Cloudy
10:15 AM 77.0 °F - 62.6 °F 61% 29.92 in 6.2 mi West 10.4 mph - N/A   Scattered Clouds
10:45 AM 78.8 °F - 60.8 °F 54% 29.92 in 6.2 mi West 11.5 mph - N/A   Scattered Clouds
10:55 AM 78.8 °F - 60.8 °F 54% 29.92 in 6.2 mi West 11.5 mph - N/A   Scattered Clouds
11:00 AM 78 °F - 62 °F 47% 29.94 in 9 mi West 11.5 mph - -   Mostly Cloudy
11:15 AM 78.8 °F - 60.8 °F 54% 29.92 in 6.2 mi West 11.5 mph - N/A   Scattered Clouds
11:45 AM 80.6 °F 81.5 °F 60.8 °F 51% 29.92 in 6.2 mi West 12.7 mph - N/A   Scattered Clouds
11:55 AM 80.6 °F 81.5 °F 60.8 °F 51% 29.92 in 6.2 mi West 12.7 mph - N/A   Scattered Clouds
12:15 PM 80.6 °F 81.1 °F 59.0 °F 48% 29.92 in 6.2 mi West 15.0 mph - N/A   Scattered Clouds
12:45 PM 80.6 °F 81.1 °F 59.0 °F 48% 29.92 in 6.2 mi West 16.1 mph - N/A   Scattered Clouds
12:55 PM 80.6 °F 81.1 °F 59.0 °F 48% 29.92 in 6.2 mi West 16.1 mph - N/A   Scattered Clouds
1:15 PM 82.4 °F 82.5 °F 59.0 °F 45% 29.92 in 6.2 mi West 16.1 mph - N/A   Scattered Clouds
1:45 PM 84.2 °F 83.8 °F 59.0 °F 42% 29.95 in 6.2 mi West 16.1 mph - N/A   Scattered Clouds
1:55 PM 84.2 °F 83.8 °F 59.0 °F 42% 29.95 in 6.2 mi West 16.1 mph - N/A   Scattered Clouds
2:00 PM 84 °F - 60 °F 34% 29.95 in 9 mi West 16.1 mph - -   Mostly Cloudy
2:15 PM 84.2 °F 83.8 °F 59.0 °F 42% 29.95 in 6.2 mi West 17.3 mph - N/A   Scattered Clouds
2:45 PM 82.4 °F 82.5 °F 59.0 °F 45% 29.95 in 6.2 mi West 15.0 mph - N/A   Partly Cloudy
2:55 PM 82.4 °F 82.5 °F 59.0 °F 45% 29.95 in 6.2 mi West 15.0 mph - N/A   Partly Cloudy
3:15 PM 82.4 °F 82.5 °F 59.0 °F 45% 29.95 in 6.2 mi West 15.0 mph - N/A   Partly Cloudy
3:45 PM 84.2 °F 83.8 °F 59.0 °F 42% 29.92 in 6.2 mi West 13.8 mph - N/A   Partly Cloudy
3:55 PM 84.2 °F 83.8 °F 59.0 °F 42% 29.92 in 6.2 mi West 13.8 mph - N/A   Partly Cloudy
4:15 PM 84.2 °F 83.8 °F 59.0 °F 42% 29.95 in 6.2 mi West 13.8 mph - N/A   Scattered Clouds
4:45 PM 84.2 °F 84.4 °F 60.8 °F 45% 29.92 in 6.2 mi West 13.8 mph - N/A   Scattered Clouds
4:55 PM 84.2 °F 84.4 °F 60.8 °F 45% 29.92 in 6.2 mi West 13.8 mph - N/A   Scattered Clouds
5:00 PM 84 °F - 60 °F 34% 29.94 in 9 mi West 13.8 mph - -   Partly Cloudy
5:15 PM 80.6 °F 80.8 °F 57.2 °F 45% 29.92 in 6.2 mi West 13.8 mph - N/A   Scattered Clouds
5:45 PM 78.8 °F - 55.4 °F 44% 29.92 in 6.2 mi West 12.7 mph - N/A   Scattered Clouds
5:55 PM 78.8 °F - 55.4 °F 44% 29.92 in 6.2 mi West 12.7 mph - N/A   Scattered Clouds
6:15 PM 82.4 °F 82.5 °F 59.0 °F 45% 29.92 in 6.2 mi West 11.5 mph - N/A   Scattered Clouds
6:45 PM 82.4 °F 82.5 °F 59.0 °F 45% 29.92 in 6.2 mi West 12.7 mph - N/A   Scattered Clouds
6:55 PM 82.4 °F 82.5 °F 59.0 °F 45% 29.92 in 6.2 mi West 12.7 mph - N/A   Scattered Clouds
7:15 PM 80.6 °F 80.5 °F 55.4 °F 42% 29.95 in 6.2 mi WNW 10.4 mph - N/A   Scattered Clouds
7:45 PM 78.8 °F - 60.8 °F 54% 29.95 in 6.2 mi WNW 9.2 mph - N/A   Partly Cloudy
7:55 PM 78.8 °F - 60.8 °F 54% 29.95 in 6.2 mi WNW 9.2 mph - N/A   Partly Cloudy
8:00 PM 80 °F - 62 °F 43% 29.97 in 7 mi WNW 9.2 mph - -   Scattered Clouds
8:15 PM 77.0 °F - 62.6 °F 61% 29.98 in 6.2 mi WNW 10.4 mph - N/A   Partly Cloudy
8:45 PM 77.0 °F - 62.6 °F 61% 29.98 in 6.2 mi WNW 9.2 mph - N/A   Partly Cloudy
8:55 PM 77.0 °F - 62.6 °F 61% 29.98 in 6.2 mi WNW 9.2 mph - N/A   Partly Cloudy
9:15 PM 75.2 °F - 60.8 °F 61% 30.01 in 6.2 mi NW 5.8 mph - N/A   Partly Cloudy
9:45 PM 73.4 °F - 60.8 °F 65% 30.01 in 6.2 mi North 5.8 mph - N/A   Partly Cloudy
9:55 PM 73.4 °F - 60.8 °F 65% 30.01 in 6.2 mi North 5.8 mph - N/A   Partly Cloudy
10:15 PM 73.4 °F - 62.6 °F 69% 30.01 in 6.2 mi NW 5.8 mph - N/A   Partly Cloudy
10:45 PM 71.6 °F - 62.6 °F 73% 30.01 in 6.2 mi NNW 6.9 mph - N/A   Partly Cloudy
10:55 PM 71.6 °F - 62.6 °F 73% 30.01 in 6.2 mi NNW 6.9 mph - N/A   Partly Cloudy
11:00 PM 72 °F - 62 °F 64% 30.02 in 6 mi NNW 6.9 mph - -   Scattered Clouds
11:15 PM 71.6 °F - 62.6 °F 73% 30.01 in 6.2 mi NW 6.9 mph - N/A   Partly Cloudy
11:45 PM 69.8 °F - 62.6 °F 78% 30.01 in 6.2 mi NW 5.8 mph - N/A   Partly Cloudy
11:55 PM 69.8 °F - 62.6 °F 78% 30.01 in 6.2 mi NW 5.8 mph - N/A   Partly Cloudy